Time,TemperatureF,DewpointF,PressureIn,WindDirection,WindDirectionDegrees,WindSpeedMPH,WindSpeedGustMPH,Humidity,HourlyPrecipIn,Conditions,Clouds,dailyrainin,SoftwareType,DateUTC
2013-07-14 08:22:00,73.0,65.0,30.03,East,95,4.0,-999.0,75,-99.99,,,-99.99,,2013-07-14 13:22:00,
2013-07-14 08:32:00,74.0,66.0,30.03,ESE,111,3.0,-999.0,75,-99.99,,,-99.99,,2013-07-14 13:32:00,
2013-07-14 08:42:00,74.0,66.0,30.03,ESE,123,3.0,-999.0,75,-99.99,,,-99.99,,2013-07-14 13:42:00,
2013-07-14 08:53:00,74.0,66.0,30.03,ESE,121,5.0,-999.0,76,-99.99,,,-99.99,,2013-07-14 13:53:00,
2013-07-14 09:02:00,75.0,67.0,30.04,ESE,113,3.0,-999.0,75,-99.99,,,-99.99,,2013-07-14 14:02:00,
2013-07-14 09:11:00,76.0,67.0,30.05,SE,141,7.0,-999.0,73,-99.99,,,-99.99,,2013-07-14 14:11:00,
2013-07-14 09:23:00,77.0,67.0,30.05,SSE,147,8.0,-999.0,72,-99.99,,,-99.99,,2013-07-14 14:23:00,
2013-07-14 09:33:00,78.0,67.0,30.04,SSE,153,6.0,-999.0,70,-99.99,,,-99.99,,2013-07-14 14:33:00,
2013-07-14 09:43:00,78.0,67.0,30.04,SE,135,5.0,-999.0,70,-99.99,,,-99.99,,2013-07-14 14:43:00,
2013-07-14 09:53:00,79.0,68.0,30.05,SSE,157,6.0,-999.0,69,-99.99,,,-99.99,,2013-07-14 14:53:00,
2013-07-14 10:01:00,80.0,68.0,30.05,SE,130,5.0,-999.0,67,-99.99,,,-99.99,,2013-07-14 15:01:00,
2013-07-14 10:12:00,81.0,69.0,30.05,SSW,196,5.0,-999.0,66,-99.99,,,-99.99,,2013-07-14 15:12:00,
2013-07-14 10:22:00,81.0,68.0,30.06,SE,132,6.0,-999.0,64,-99.99,,,-99.99,,2013-07-14 15:22:00,
2013-07-14 10:32:00,81.0,68.0,30.06,SE,141,6.0,-999.0,65,-99.99,,,-99.99,,2013-07-14 15:32:00,
2013-07-14 10:42:00,81.0,69.0,30.06,South,174,6.0,-999.0,66,-99.99,,,-99.99,,2013-07-14 15:42:00,
2013-07-14 10:53:00,81.0,68.0,30.06,South,175,4.0,-999.0,65,-99.99,,,-99.99,,2013-07-14 15:53:00,
2013-07-14 11:01:00,82.0,68.0,30.06,SSE,168,2.0,-999.0,63,-99.99,,,-99.99,,2013-07-14 16:01:00,
2013-07-14 11:11:00,81.0,68.0,30.06,SE,136,2.0,-999.0,64,-99.99,,,-99.99,,2013-07-14 16:11:00,
2013-07-14 11:22:00,81.0,69.0,30.07,SE,128,0.0,-999.0,66,-99.99,,,-99.99,,2013-07-14 16:22:00,
2013-07-14 11:32:00,82.0,68.0,30.06,SSE,155,2.0,-999.0,63,-99.99,,,-99.99,,2013-07-14 16:32:00,
2013-07-14 11:43:00,82.0,67.0,30.06,ESE,106,3.0,-999.0,61,-99.99,,,-99.99,,2013-07-14 16:43:00,
2013-07-14 11:53:00,83.0,67.0,30.06,SE,138,5.0,-999.0,59,-99.99,,,-99.99,,2013-07-14 16:53:00,
2013-07-14 12:02:00,84.0,68.0,30.06,SE,136,5.0,-999.0,58,-99.99,,,-99.99,,2013-07-14 17:02:00,
2013-07-14 12:11:00,84.0,68.0,30.06,ESE,103,5.0,-999.0,59,-99.99,,,-99.99,,2013-07-14 17:11:00,
2013-07-14 12:22:00,84.0,68.0,30.06,SSE,153,4.0,-999.0,58,-99.99,,,-99.99,,2013-07-14 17:22:00,
2013-07-14 12:32:00,84.0,68.0,30.06,SSE,152,4.0,-999.0,58,-99.99,,,-99.99,,2013-07-14 17:32:00,
2013-07-14 12:43:00,84.0,68.0,30.06,SSE,151,4.0,-999.0,58,-99.99,,,-99.99,,2013-07-14 17:43:00,
2013-07-14 12:53:00,85.0,69.0,30.05,East,92,1.0,-999.0,59,-99.99,,,-99.99,,2013-07-14 17:53:00,
2013-07-14 13:01:00,85.0,69.0,30.05,SE,146,2.0,-999.0,58,-99.99,,,-99.99,,2013-07-14 18:01:00,
2013-07-14 13:11:00,85.0,69.0,30.05,ENE,68,1.0,-999.0,59,-99.99,,,-99.99,,2013-07-14 18:11:00,
2013-07-14 13:22:00,85.0,69.0,30.05,ENE,67,2.0,-999.0,58,-99.99,,,-99.99,,2013-07-14 18:22:00,
2013-07-14 13:32:00,85.0,67.0,30.05,East,92,3.0,-999.0,55,-99.99,,,-99.99,,2013-07-14 18:32:00,
2013-07-14 13:42:00,86.0,67.0,30.05,East,88,2.0,-999.0,53,-99.99,,,-99.99,,2013-07-14 18:42:00,
2013-07-14 13:52:00,86.0,66.0,30.04,SE,141,3.0,-999.0,51,-99.99,,,-99.99,,2013-07-14 18:52:00,
2013-07-14 14:01:00,87.0,67.0,30.04,East,96,1.0,-999.0,52,-99.99,,,-99.99,,2013-07-14 19:01:00,
2013-07-14 14:11:00,87.0,68.0,30.04,ENE,68,3.0,-999.0,53,-99.99,,,-99.99,,2013-07-14 19:11:00,
2013-07-14 14:22:00,87.0,67.0,30.04,ESE,110,5.0,-999.0,52,-99.99,,,-99.99,,2013-07-14 19:22:00,
2013-07-14 14:32:00,87.0,68.0,30.04,ESE,109,4.0,-999.0,53,-99.99,,,-99.99,,2013-07-14 19:32:00,
2013-07-14 14:43:00,87.0,68.0,30.03,ENE,63,2.0,-999.0,54,-99.99,,,-99.99,,2013-07-14 19:43:00,
2013-07-14 14:52:00,86.0,69.0,30.03,East,99,3.0,-999.0,57,-99.99,,,-99.99,,2013-07-14 19:52:00,
2013-07-14 15:01:00,86.0,69.0,30.02,NE,55,5.0,-999.0,58,-99.99,,,-99.99,,2013-07-14 20:01:00,
2013-07-14 15:11:00,86.0,69.0,30.03,East,79,2.0,-999.0,58,-99.99,,,-99.99,,2013-07-14 20:11:00,
2013-07-14 15:22:00,85.0,69.0,30.02,ENE,78,5.0,-999.0,59,-99.99,,,-99.99,,2013-07-14 20:22:00,
2013-07-14 15:32:00,86.0,69.0,30.02,ENE,68,3.0,-999.0,58,-99.99,,,-99.99,,2013-07-14 20:32:00,
2013-07-14 15:43:00,86.0,69.0,30.02,East,89,3.0,-999.0,57,-99.99,,,-99.99,,2013-07-14 20:43:00,
2013-07-14 15:53:00,86.0,69.0,30.02,ENE,67,3.0,-999.0,57,-99.99,,,-99.99,,2013-07-14 20:53:00,
2013-07-14 16:01:00,86.0,68.0,30.02,North,360,4.0,-999.0,56,-99.99,,,-99.99,,2013-07-14 21:01:00,
2013-07-14 16:11:00,86.0,67.0,30.02,ENE,71,2.0,-999.0,53,-99.99,,,-99.99,,2013-07-14 21:11:00,
2013-07-14 16:22:00,86.0,67.0,30.02,East,90,3.0,-999.0,53,-99.99,,,-99.99,,2013-07-14 21:22:00,
2013-07-14 16:32:00,86.0,68.0,30.02,ENE,69,1.0,-999.0,55,-99.99,,,-99.99,,2013-07-14 21:32:00,
2013-07-14 16:43:00,85.0,70.0,30.03,ESE,104,6.0,-999.0,61,-99.99,,,-99.99,,2013-07-14 21:43:00,
2013-07-14 16:52:00,80.0,71.0,30.05,East,88,11.0,-999.0,73,-99.99,,,-99.99,,2013-07-14 21:52:00,
2013-07-14 17:42:00,76.0,71.0,30.03,East,82,0.0,-999.0,85,-99.99,,,-99.99,,2013-07-14 22:42:00,
2013-07-14 17:53:00,76.0,71.0,30.03,ESE,104,0.0,-999.0,84,-99.99,,,-99.99,,2013-07-14 22:53:00,
2013-07-14 18:01:00,77.0,72.0,30.03,East,92,0.0,-999.0,84,-99.99,,,-99.99,,2013-07-14 23:01:00,
2013-07-14 18:11:00,77.0,72.0,30.03,ESE,109,0.0,-999.0,84,-99.99,,,-99.99,,2013-07-14 23:11:00,
2013-07-14 18:22:00,77.0,71.0,30.03,East,92,0.0,-999.0,83,-99.99,,,-99.99,,2013-07-14 23:22:00,
2013-07-14 18:32:00,77.0,71.0,30.03,East,89,0.0,-999.0,83,-99.99,,,-99.99,,2013-07-14 23:32:00,
2013-07-14 18:42:00,77.0,71.0,30.03,East,95,0.0,-999.0,83,-99.99,,,-99.99,,2013-07-14 23:42:00,
2013-07-14 18:53:00,77.0,71.0,30.03,East,92,0.0,-999.0,83,-99.99,,,-99.99,,2013-07-14 23:53:00,
2013-07-14 19:02:00,78.0,72.0,30.03,East,88,0.0,-999.0,82,-99.99,,,-99.99,,2013-07-15 00:02:00,
2013-07-14 19:11:00,78.0,71.0,30.03,ESE,102,1.0,-999.0,80,-99.99,,,-99.99,,2013-07-15 00:11:00,
2013-07-14 19:22:00,78.0,72.0,30.03,East,92,0.0,-999.0,81,-99.99,,,-99.99,,2013-07-15 00:22:00,
2013-07-14 19:32:00,78.0,71.0,30.04,East,86,0.0,-999.0,80,-99.99,,,-99.99,,2013-07-15 00:32:00,
2013-07-14 19:43:00,78.0,71.0,30.04,ENE,76,1.0,-999.0,80,-99.99,,,-99.99,,2013-07-15 00:43:00,
2013-07-14 19:53:00,78.0,71.0,30.04,ENE,74,1.0,-999.0,80,-99.99,,,-99.99,,2013-07-15 00:53:00,
2013-07-14 20:01:00,78.0,72.0,30.03,North,-999,-999.0,-999.0,81,-99.99,,,-99.99,,2013-07-15 01:01:00,